Weather History for KCHO - December, 2011

Change the Weather History Date:

Wednesday, December 7, 2011

  Actual Average Record
Temperature  
Mean Temperature 52 °F 40 °F  
Max Temperature 63 °F 49 °F - ()
Min Temperature 41 °F 30 °F - ()
Degree Days  
Heating Degree Days 13 25  
Month to date heating degree days 133 170  
Since 1 July heating degree days 849 1061  
Cooling Degree Days 0 0  
Month to date cooling degree days 0 0  
Year to date cooling degree days 1603 1035  
Growing Degree Days 2 (Base 50)    
Moisture  
Dew Point 52 °F    
Average Humidity 90    
Maximum Humidity 100    
Minimum Humidity 79    
Precipitation  
Precipitation 1.98 in 0.11 in - ()
Month to date precipitation 2.42 0.85  
Year to date precipitation 46.37 40.41  
Sea Level Pressure  
Sea Level Pressure 29.71 in    
Wind  
Wind Speed 7 mph (ENE)    
Max Wind Speed 15 mph    
Max Gust Speed 25 mph    
Visibility 4 miles    
Events Rain    
T = Trace of Precipitation, MM = Missing Value Source: NWS Daily Summary

Daily Weather History Graph

Daily Weather History Graph

Search for Another Location

Airport or City:

Trip Planner

Search our weather history database for the weather conditions in past years. The results will help you decide how hot, cold, wet, or windy it might be!

Date:

Astronomy

Dec. 07, 2011 Rise Set
Actual Time 7:16 AM EST 4:53 PM EST
Civil Twilight 6:47 AM EST 5:23 PM EST
Nautical Twilight 6:14 AM EST 5:55 PM EST
Astronomical Twilight 5:42 AM EST 6:27 PM EST
Moon 2:52 PM EST (12/7) 4:31 AM EST (12/7)
Length of Visible Light 10h 35m
Length of Day
9h 37m
Waxing Gibbous, 92% of the Moon is Illuminated
Dec 7
Waxing Gibbous
Dec 10
Full
Dec 17
Last Quarter
Dec 24
New
Jan 1
First Quarter

Hourly Weather History & Observations

Time (EST) Temp. Windchill Dew Point Humidity Pressure Visibility Wind Dir Wind Speed Gust Speed Precip Events Conditions
12:53 AM 62.1 °F - 60.1 °F 93% 29.88 in 10.0 mi South 9.2 mph - 0.00 in   Overcast
1:53 AM 62.1 °F - 60.1 °F 93% 29.86 in 10.0 mi South 9.2 mph - 0.00 in   Overcast
2:07 AM 62.6 °F - 60.8 °F 94% 29.87 in 9.0 mi South 9.2 mph - N/A   Overcast
2:14 AM 62.6 °F - 60.8 °F 94% 29.87 in 7.0 mi South 9.2 mph - 0.00 in Rain Light Rain
2:31 AM 62.6 °F - 60.8 °F 94% 29.87 in 4.0 mi South 6.9 mph - 0.00 in Rain Light Rain
2:39 AM 62.6 °F - 60.8 °F 94% 29.86 in 5.0 mi South 5.8 mph - 0.01 in Rain Light Rain
2:53 AM 62.1 °F - 60.1 °F 93% 29.86 in 6.0 mi South 10.4 mph - 0.01 in   Overcast
3:04 AM 62.6 °F - 60.8 °F 94% 29.86 in 5.0 mi South 8.1 mph - N/A   Overcast
3:20 AM 60.8 °F - 60.8 °F 100% 29.85 in 5.0 mi South 8.1 mph - N/A   Overcast
3:53 AM 61.0 °F - 60.1 °F 97% 29.83 in 4.0 mi South 5.8 mph - 0.07 in Rain Rain
3:55 AM 60.8 °F - 60.8 °F 100% 29.84 in 4.0 mi South 5.8 mph - 0.00 in Rain Rain
4:00 AM 60.8 °F - 59.0 °F 94% 29.84 in 4.0 mi South 5.8 mph - 0.01 in Rain Rain
4:53 AM 60.8 °F - 59.0 °F 94% 29.82 in 3.0 mi South 6.9 mph - N/A Rain Rain
5:22 AM 60.8 °F - 59.0 °F 94% 29.80 in 4.0 mi SSE 5.8 mph - 0.06 in Rain Rain
5:51 AM 60.8 °F - 59.0 °F 94% 29.80 in 2.0 mi South 5.8 mph - 0.13 in Rain Rain
5:53 AM 61.0 °F - 59.0 °F 93% 29.78 in 2.0 mi South 4.6 mph - 0.14 in Rain Rain
6:34 AM 60.8 °F - 59.0 °F 94% 29.79 in 2.0 mi SSE 5.8 mph - 0.08 in Rain Rain
6:53 AM 61.0 °F - 59.0 °F 93% 29.78 in 2.0 mi SSE 4.6 mph - 0.11 in Rain Light Rain
6:59 AM 60.8 °F - 59.0 °F 94% 29.78 in 4.0 mi Calm Calm - 0.02 in Rain Rain
7:09 AM 60.8 °F - 59.0 °F 94% 29.77 in 4.0 mi SSE 3.5 mph - 0.03 in Rain Light Rain
7:19 AM 60.8 °F - 59.0 °F 94% 29.78 in 2.0 mi WSW 4.6 mph - 0.04 in Rain Light Rain
7:53 AM 57.9 °F - 57.0 °F 97% 29.77 in 2.0 mi Calm Calm - 0.09 in Rain Light Rain
8:04 AM 57.2 °F - 57.2 °F 100% 29.78 in 1.8 mi Calm Calm - 0.01 in Rain Light Rain
8:13 AM 57.2 °F - 55.4 °F 94% 29.77 in 3.0 mi Calm Calm - 0.01 in Rain Light Rain
8:20 AM 57.2 °F - 55.4 °F 94% 29.76 in 2.0 mi Variable 3.5 mph - 0.02 in Rain Light Rain
8:24 AM 57.2 °F - 55.4 °F 94% 29.76 in 2.0 mi Calm Calm - 0.02 in Rain Light Rain
8:53 AM 57.2 °F - 55.4 °F 94% 29.78 in 2.0 mi North 6.9 mph - N/A Rain Rain
9:53 AM 55.9 °F - 54.0 °F 93% 29.76 in 2.0 mi ENE 11.5 mph - 0.06 in Rain Light Rain
10:49 AM 55.4 °F - 53.6 °F 94% 29.74 in 2.0 mi ENE 12.7 mph - 0.06 in Rain Rain
10:53 AM 55.0 °F - 53.1 °F 93% 29.73 in 2.0 mi ENE 12.7 mph - 0.07 in Rain Heavy Rain
11:53 AM 55.0 °F - 53.1 °F 93% 29.70 in 2.0 mi NNE 11.5 mph - 0.09 in Rain Light Rain
12:53 PM 54.0 °F - 52.0 °F 93% 29.66 in 2.0 mi NE 11.5 mph - 0.13 in Rain Light Rain
12:55 PM 53.6 °F - 51.8 °F 94% 29.67 in 3.0 mi NNE 4.6 mph - 0.00 in Rain Light Rain
1:07 PM 53.6 °F - 51.8 °F 94% 29.67 in 1.8 mi Variable 3.5 mph - 0.04 in Rain Heavy Rain
1:19 PM 53.6 °F - 51.8 °F 94% 29.66 in 2.0 mi NW 4.6 mph - 0.07 in Rain Light Rain
1:34 PM 53.6 °F - 51.8 °F 94% 29.64 in 4.0 mi NE 4.6 mph - 0.09 in Rain Light Rain
1:46 PM 53.6 °F - 51.8 °F 94% 29.63 in 2.0 mi NE 5.8 mph - 0.09 in Rain Light Rain
1:53 PM 53.1 °F - 51.1 °F 93% 29.62 in 1.5 mi NE 4.6 mph - 0.10 in Rain Rain
2:03 PM 53.6 °F - 51.8 °F 94% 29.62 in 1.5 mi NE 13.8 mph - 0.04 in Rain Heavy Rain
2:28 PM 53.6 °F - 51.8 °F 94% 29.61 in 1.5 mi NE 13.8 mph - 0.08 in Rain Rain
2:50 PM 53.6 °F - 51.8 °F 94% 29.60 in 2.0 mi NE 13.8 mph - 0.11 in Rain Light Rain
2:51 PM 53.1 °F - 51.1 °F 93% 29.59 in 2.0 mi NE 13.8 mph - 0.11 in Rain Light Rain
2:58 PM 51.8 °F - 51.8 °F 100% 29.60 in 4.0 mi NNE 4.6 mph - 0.00 in Rain Light Rain
3:03 PM 51.8 °F - 51.8 °F 100% 29.59 in 1.0 mi Variable 3.5 mph - 0.02 in Rain Light Rain
3:38 PM 51.8 °F - 50.0 °F 94% 29.59 in 1.0 mi NE 3.5 mph - 0.09 in Rain Light Rain
3:53 PM 52.0 °F - 50.0 °F 93% 29.60 in 2.0 mi Calm Calm - 0.11 in Rain Rain
4:02 PM 51.8 °F - 50.0 °F 94% 29.61 in 1.8 mi West 4.6 mph - 0.03 in Rain Rain
4:08 PM 51.8 °F - 50.0 °F 94% 29.59 in 2.5 mi Calm Calm - 0.03 in Rain Light Rain
4:16 PM 51.8 °F - 50.0 °F 94% 29.58 in 4.0 mi NNE 3.5 mph - 0.04 in Rain Light Rain
4:25 PM 51.8 °F - 50.0 °F 94% 29.56 in 3.0 mi ENE 3.5 mph - 0.07 in Rain Rain
4:33 PM 51.8 °F - 50.0 °F 94% 29.54 in 5.0 mi Variable 3.5 mph - 0.07 in Rain Light Rain
4:53 PM 51.1 °F - 50.0 °F 96% 29.50 in 4.0 mi NE 5.8 mph - 0.10 in Rain Rain
5:01 PM 51.8 °F - 50.0 °F 94% 29.52 in 5.0 mi NE 4.6 mph - 0.01 in Rain Light Rain
5:23 PM 51.8 °F - 48.2 °F 88% 29.51 in 2.0 mi North 9.2 mph - 0.09 in Rain Heavy Rain
5:44 PM 50.0 °F - 48.2 °F 94% 29.57 in 1.5 mi Variable 5.8 mph - 0.25 in Rain Heavy Rain
5:50 PM 50.0 °F - 48.2 °F 94% 29.59 in 2.0 mi Variable 3.5 mph - 0.30 in Rain Heavy Rain
5:53 PM 50.0 °F - 48.0 °F 93% 29.58 in 1.8 mi Variable 4.6 mph - 0.32 in Rain Heavy Rain
6:04 PM 48.2 °F - 46.4 °F 93% 29.62 in 2.5 mi North 15.0 mph 23.0 mph 0.06 in Rain Heavy Rain
6:09 PM 48.2 °F - 44.6 °F 87% 29.61 in 3.0 mi North 15.0 mph 23.0 mph 0.08 in Rain Heavy Rain
6:48 PM 46.4 °F 40.1 °F 42.8 °F 87% 29.62 in 7.0 mi North 15.0 mph 23.0 mph 0.15 in Rain Rain
6:53 PM 45.0 °F 38.2 °F 42.1 °F 90% 29.61 in 7.0 mi North 15.0 mph 23.0 mph 0.15 in Rain Light Rain
7:53 PM 41.0 °F 34.7 °F 37.4 °F 87% 29.64 in 4.0 mi North 10.4 mph 24.2 mph N/A Rain Rain
8:53 PM 41.0 °F 34.7 °F 35.1 °F 79% 29.73 in 10.0 mi NNW 10.4 mph 25.3 mph 0.03 in Rain Light Rain
9:53 PM 41.0 °F 35.2 °F 33.1 °F 73% 29.76 in 10.0 mi NNW 9.2 mph 24.2 mph 0.00 in Rain Light Rain
10:53 PM 42.1 °F - 30.9 °F 65% 29.83 in 10.0 mi Calm Calm - 0.00 in   Overcast
11:53 PM 41.0 °F - 30.0 °F 65% 29.85 in 10.0 mi Calm Calm - N/A   Mostly Cloudy